Weather History for Port Isabel, TX

Change the Weather History Date:

Saturday, November 17, 2012

  Actual Average Record
Temperature  
Mean Temperature 68 °F -  
Max Temperature 75 °F - - ()
Min Temperature 61 °F - - ()
Cooling Degree Days 3    
Growing Degree Days 18 (Base 50)    
Moisture  
Dew Point 55 °F    
Average Humidity 66    
Maximum Humidity 83    
Minimum Humidity 46    
Precipitation  
Precipitation 0.00 in - - ()
Sea Level Pressure  
Sea Level Pressure 30.26 in    
Wind  
Wind Speed 6 mph (NE)    
Max Wind Speed 12 mph    
Max Gust Speed -    
Visibility 10 miles    
Events      
T = Trace of Precipitation, MM = Missing Value Source: NWS Daily Summary

Daily Weather History Graph

Daily Weather History Graph

Search for Another Location

Airport:

Trip Planner

Search our weather history database for the weather conditions in past years. The results will help you decide how hot, cold, wet, or windy it might be!

Date:

Astronomy

Nov. 17, 2012 Rise Set
Actual Time 6:49 AM CST 5:38 PM CST
Civil Twilight 6:25 AM CST 6:03 PM CST
Nautical Twilight 5:57 AM CST 6:31 PM CST
Astronomical Twilight 5:29 AM CST 6:58 PM CST
Moon 10:35 AM CST (11/17) 9:48 PM CST (11/17)
Length of Visible Light 11h 38m
Length of Day
10h 49m
Waxing Crescent, 20% of the Moon is Illuminated
Nov 17
Waxing Crescent
Nov 20
First Quarter
Nov 28
Full
Dec 6
Last Quarter
Dec 13
New

Hourly Weather History & Observations

Time (CST) Temp. Dew Point Humidity Pressure Visibility Wind Dir Wind Speed Gust Speed Precip Events Conditions
12:53 AM 63.0 °F 55.9 °F 78% 30.25 in 10.0 mi NNE 4.6 mph - N/A   Overcast
1:53 AM 63.0 °F 55.9 °F 78% 30.27 in 10.0 mi NW 5.8 mph - N/A   Mostly Cloudy
2:53 AM 61.0 °F 55.9 °F 83% 30.25 in 10.0 mi NNW 5.8 mph - N/A   Scattered Clouds
3:53 AM 62.1 °F 55.9 °F 80% 30.25 in 10.0 mi NNW 4.6 mph - N/A   Overcast
4:53 AM 63.0 °F 55.0 °F 75% 30.24 in 10.0 mi NNW 4.6 mph - N/A   Overcast
5:53 AM 62.1 °F 55.0 °F 78% 30.25 in 10.0 mi NNW 5.8 mph - N/A   Mostly Cloudy
6:53 AM 61.0 °F 55.0 °F 81% 30.26 in 10.0 mi North 5.8 mph - N/A   Scattered Clouds
7:53 AM 64.0 °F 55.9 °F 75% 30.28 in 10.0 mi NNW 5.8 mph - N/A   Clear
8:53 AM 71.1 °F 55.0 °F 57% 30.29 in 10.0 mi NNE 8.1 mph - N/A   Scattered Clouds
9:53 AM 71.1 °F 55.9 °F 59% 30.30 in 10.0 mi NNE 5.8 mph - N/A   Overcast
10:53 AM 73.9 °F 54.0 °F 50% 30.30 in 10.0 mi ENE 10.4 mph - N/A   Overcast
11:53 AM 73.9 °F 54.0 °F 50% 30.30 in 10.0 mi ENE 10.4 mph - N/A   Mostly Cloudy
12:53 PM 75.0 °F 53.1 °F 46% 30.27 in 10.0 mi East 9.2 mph - N/A   Partly Cloudy
1:53 PM 75.0 °F 54.0 °F 48% 30.25 in 10.0 mi ENE 11.5 mph - N/A   Clear
2:53 PM 75.0 °F 54.0 °F 48% 30.24 in 10.0 mi ENE 10.4 mph - N/A   Scattered Clouds
3:17 PM 73.4 °F 53.6 °F 50% 30.24 in 10.0 mi East 10.4 mph - N/A   Partly Cloudy
3:53 PM 73.0 °F 53.1 °F 49% 30.24 in 10.0 mi East 9.2 mph - N/A   Partly Cloudy
4:53 PM 72.0 °F 54.0 °F 53% 30.24 in 10.0 mi NE 6.9 mph - N/A   Clear
5:53 PM 68.0 °F 55.0 °F 63% 30.25 in 10.0 mi ENE 4.6 mph - N/A   Partly Cloudy
6:53 PM 66.0 °F 55.9 °F 70% 30.26 in 10.0 mi NE 4.6 mph - N/A   Clear
7:53 PM 64.9 °F 55.9 °F 73% 30.27 in 10.0 mi NE 4.6 mph - N/A   Partly Cloudy
8:53 PM 64.0 °F 55.9 °F 75% 30.27 in 10.0 mi NE 4.6 mph - N/A   Clear
9:53 PM 63.0 °F 55.9 °F 78% 30.27 in 10.0 mi NNE 4.6 mph - N/A   Partly Cloudy
10:53 PM 63.0 °F 55.9 °F 78% 30.26 in 10.0 mi ENE 4.6 mph - N/A   Partly Cloudy
11:53 PM 62.1 °F 55.9 °F 80% 30.25 in 10.0 mi ENE 5.8 mph - N/A   Clear